Previsão horária em Ceranow

Hoje, 30 Julho, Sexta-feira

Tempo Temperatura Precipitação Vento Pressão Humidade
00:00 +20°C° 0 mm 3 m/s 748 mmHg 69%
01:00 +19°C° 0 mm 3 m/s 748 mmHg 69%
02:00 +19°C° 0 mm 2 m/s 748 mmHg 68%
03:00 +19°C° 0 mm 2 m/s 748 mmHg 66%
04:00 +19°C° 0 mm 2 m/s 748 mmHg 64%
05:00 +20°C° 0 mm 2 m/s 748 mmHg 64%
06:00 +20°C° 0 mm 2 m/s 748 mmHg 64%
07:00 +21°C° 0 mm 2 m/s 748 mmHg 63%
08:00 +22°C° 0 mm 3 m/s 747 mmHg 59%
09:00 +23°C° 0 mm 4 m/s 747 mmHg 54%
10:00 +25°C° 0 mm 4 m/s 747 mmHg 50%
11:00 +26°C° 0 mm 5 m/s 747 mmHg 46%
12:00 +27°C° 0 mm 6 m/s 747 mmHg 43%
13:00 +27°C° 0 mm 7 m/s 746 mmHg 40%
14:00 +27°C° 0 mm 6 m/s 746 mmHg 40%
15:00 +27°C° 0 mm 6 m/s 746 mmHg 41%
16:00 +27°C° 0 mm 6 m/s 746 mmHg 41%
17:00 +26°C° 0 mm 5 m/s 746 mmHg 45%
18:00 +25°C° 0 mm 3 m/s 746 mmHg 49%
19:00 +23°C° 0 mm 2 m/s 746 mmHg 54%
20:00 +21°C° 0 mm 2 m/s 746 mmHg 57%
21:00 +21°C° 0 mm 2 m/s 746 mmHg 60%
22:00 +20°C° 0 mm 3 m/s 746 mmHg 63%
23:00 +19°C° 0 mm 3 m/s 746 mmHg 66%

Amanhã, 31 Julho, Sábado

Tempo Temperatura Precipitação Vento Pressão Humidade
00:00 +19°C° 0 mm 3 m/s 746 mmHg 69%
01:00 +18°C° 0 mm 3 m/s 746 mmHg 72%
02:00 +18°C° 0 mm 3 m/s 746 mmHg 74%
03:00 +17°C° 0 mm 2 m/s 746 mmHg 76%
04:00 +17°C° 0 mm 2 m/s 746 mmHg 78%
05:00 +19°C° 0 mm 2 m/s 746 mmHg 71%
06:00 +20°C° 0 mm 2 m/s 746 mmHg 65%
07:00 +23°C° 0 mm 2 m/s 746 mmHg 58%
08:00 +25°C° 0 mm 2 m/s 746 mmHg 52%
09:00 +27°C° 0 mm 2 m/s 746 mmHg 46%
10:00 +29°C° 0 mm 2 m/s 746 mmHg 41%
11:00 +30°C° 0 mm 3 m/s 745 mmHg 39%
12:00 +30°C° 0 mm 3 m/s 745 mmHg 38%
13:00 +31°C° 0 mm 3 m/s 745 mmHg 36%
14:00 +28°C° 1.3 mm 4 m/s 745 mmHg 53%
15:00 +23°C° 1.3 mm 5 m/s 745 mmHg 69%
16:00 +20°C° 1.3 mm 7 m/s 745 mmHg 86%
17:00 +20°C° 0.6 mm 5 m/s 745 mmHg 88%
18:00 +20°C° 0.6 mm 4 m/s 744 mmHg 89%
19:00 +20°C° 0.6 mm 3 m/s 744 mmHg 90%
20:00 +20°C° 0.5 mm 3 m/s 745 mmHg 90%
21:00 +19°C° 0.5 mm 3 m/s 745 mmHg 90%
22:00 +19°C° 0.5 mm 3 m/s 745 mmHg 91%
23:00 +18°C° 0 mm 3 m/s 745 mmHg 90%

Depois de amanhã, 1 Agosto, Domingo

Tempo Temperatura Precipitação Vento Pressão Humidade
00:00 +17°C° 0 mm 3 m/s 745 mmHg 89%
01:00 +17°C° 0 mm 3 m/s 746 mmHg 88%
02:00 +16°C° 0 mm 3 m/s 746 mmHg 86%
03:00 +16°C° 0 mm 3 m/s 746 mmHg 85%
04:00 +15°C° 0 mm 2 m/s 746 mmHg 84%
05:00 +17°C° 0 mm 2 m/s 746 mmHg 77%
06:00 +18°C° 0 mm 2 m/s 747 mmHg 71%
07:00 +20°C° 0 mm 2 m/s 747 mmHg 65%
08:00 +21°C° 0 mm 2 m/s 747 mmHg 59%
09:00 +24°C° 0 mm 2 m/s 747 mmHg 52%
10:00 +26°C° 0 mm 2 m/s 747 mmHg 45%
11:00 +25°C° 0 mm 3 m/s 747 mmHg 47%
12:00 +25°C° 0 mm 3 m/s 747 mmHg 50%
13:00 +24°C° 0 mm 3 m/s 747 mmHg 52%
14:00 +24°C° 0 mm 3 m/s 746 mmHg 56%
15:00 +22°C° 0 mm 3 m/s 746 mmHg 59%
16:00 +21°C° 0 mm 4 m/s 746 mmHg 63%
17:00 +20°C° 0.2 mm 4 m/s 746 mmHg 72%
18:00 +18°C° 0.2 mm 4 m/s 746 mmHg 80%
19:00 +17°C° 0.2 mm 3 m/s 746 mmHg 89%
20:00 +17°C° 0.2 mm 3 m/s 746 mmHg 90%
21:00 +17°C° 0.2 mm 3 m/s 746 mmHg 91%
22:00 +16°C° 0.2 mm 2 m/s 746 mmHg 92%
23:00 +16°C° 0 mm 2 m/s 746 mmHg 92%

2 Agosto, Segunda-feira

Tempo Temperatura Precipitação Vento Pressão Humidade
00:00 +16°C° 0 mm 2 m/s 746 mmHg 92%
01:00 +16°C° 0 mm 1 m/s 745 mmHg 91%
02:00 +16°C° 0 mm 2 m/s 745 mmHg 91%
03:00 +16°C° 0 mm 2 m/s 745 mmHg 90%
04:00 +15°C° 0 mm 2 m/s 745 mmHg 90%
05:00 +16°C° 0 mm 2 m/s 745 mmHg 88%
06:00 +16°C° 0 mm 2 m/s 746 mmHg 85%
07:00 +17°C° 0 mm 2 m/s 746 mmHg 83%
08:00 +18°C° 0.2 mm 3 m/s 746 mmHg 75%
09:00 +20°C° 0.2 mm 3 m/s 746 mmHg 68%
10:00 +22°C° 0.2 mm 4 m/s 746 mmHg 61%
11:00 +23°C° 0.1 mm 4 m/s 746 mmHg 56%
12:00 +23°C° 0.1 mm 4 m/s 746 mmHg 51%
13:00 +25°C° 0.1 mm 4 m/s 746 mmHg 46%
14:00 +25°C° 0 mm 4 m/s 746 mmHg 48%
15:00 +23°C° 0 mm 4 m/s 746 mmHg 49%
16:00 +23°C° 0 mm 4 m/s 746 mmHg 50%
17:00 +21°C° 0.1 mm 4 m/s 747 mmHg 60%
18:00 +20°C° 0.1 mm 3 m/s 747 mmHg 69%
19:00 +18°C° 0.1 mm 3 m/s 747 mmHg 79%
20:00 +17°C° 0.1 mm 2 m/s 748 mmHg 83%
21:00 +16°C° 0.1 mm 2 m/s 748 mmHg 87%
22:00 +15°C° 0.1 mm 2 m/s 749 mmHg 91%
23:00 +15°C° 0 mm 2 m/s 749 mmHg 89%

3 Agosto, Terça-feira

Tempo Temperatura Precipitação Vento Pressão Humidade
00:00 +15°C° 0 mm 2 m/s 749 mmHg 86%
01:00 +16°C° 0 mm 2 m/s 749 mmHg 84%
02:00 +14°C° 0 mm 3 m/s 750 mmHg 83%
03:00 +14°C° 0 mm 3 m/s 750 mmHg 81%
04:00 +14°C° 0 mm 3 m/s 750 mmHg 80%
05:00 +16°C° 0 mm 3 m/s 750 mmHg 75%
06:00 +17°C° 0 mm 3 m/s 751 mmHg 69%
07:00 +18°C° 0 mm 4 m/s 751 mmHg 64%
08:00 +19°C° 0 mm 4 m/s 751 mmHg 59%
09:00 +20°C° 0 mm 4 m/s 751 mmHg 53%
10:00 +21°C° 0 mm 4 m/s 752 mmHg 48%
11:00 +22°C° 0 mm 4 m/s 751 mmHg 44%
12:00 +23°C° 0 mm 4 m/s 751 mmHg 41%
13:00 +25°C° 0 mm 4 m/s 751 mmHg 37%
14:00 +25°C° 0 mm 4 m/s 751 mmHg 37%
15:00 +25°C° 0 mm 5 m/s 751 mmHg 36%
16:00 +25°C° 0 mm 5 m/s 751 mmHg 36%
17:00 +22°C° 0 mm 4 m/s 751 mmHg 42%
18:00 +21°C° 0 mm 3 m/s 751 mmHg 48%
19:00 +19°C° 0 mm 2 m/s 751 mmHg 54%
20:00 +19°C° 0 mm 1 m/s 751 mmHg 55%
21:00 +18°C° 0 mm 1 m/s 751 mmHg 56%
22:00 +18°C° 0 mm 1 m/s 752 mmHg 58%
23:00 +16°C° 0 mm 1 m/s 752 mmHg 59%

4 Agosto, Quarta-feira

Tempo Temperatura Precipitação Vento Pressão Humidade
00:00 +16°C° 0 mm 2 m/s 752 mmHg 60%
01:00 +16°C° 0 mm 2 m/s 752 mmHg 61%
02:00 +15°C° 0 mm 2 m/s 752 mmHg 63%
03:00 +15°C° 0 mm 2 m/s 752 mmHg 65%
04:00 +15°C° 0 mm 2 m/s 752 mmHg 66%
05:00 +16°C° 0 mm 3 m/s 751 mmHg 62%
06:00 +18°C° 0 mm 3 m/s 751 mmHg 59%
07:00 +20°C° 0 mm 3 m/s 751 mmHg 55%
08:00 +21°C° 0 mm 3 m/s 751 mmHg 53%
09:00 +24°C° 0 mm 3 m/s 751 mmHg 51%
10:00 +25°C° 0 mm 3 m/s 751 mmHg 48%
11:00 +24°C° 0.9 mm 3 m/s 751 mmHg 58%
12:00 +22°C° 0.9 mm 3 m/s 750 mmHg 67%
13:00 +20°C° 0.9 mm 2 m/s 750 mmHg 77%
14:00 +19°C° 4.2 mm 3 m/s 750 mmHg 83%
15:00 +18°C° 4.2 mm 4 m/s 750 mmHg 90%
16:00 +15°C° 4.2 mm 5 m/s 750 mmHg 96%
17:00 +15°C° 0.1 mm 4 m/s 750 mmHg 96%
18:00 +15°C° 0.1 mm 4 m/s 750 mmHg 96%
19:00 +16°C° 0.1 mm 3 m/s 750 mmHg 96%
20:00 +16°C° 0 mm 3 m/s 750 mmHg 96%
21:00 +16°C° 0 mm 3 m/s 750 mmHg 96%
22:00 +14°C° 0 mm 3 m/s 750 mmHg 97%
23:00 +14°C° 0 mm 3 m/s 750 mmHg 97%
Mostrar mais

Necessitamos do seu Consentimento

A Meteoprog e os seus Fornecedores de Serviços podem armazenar e aceder a dados pessoais como cookies, identificadores do dispositivo ou outras tecnologias semelhantes existentes no seu dispositivo e processar estes dados para personalizar conteúdos e anúncios, assim como funcionalidades nas redes sociais e análise de tráfego.

  • Armazenar e/ou aceder a informações no seu dispositivo

    Os cookies, identificadores do dispositivo ou outras informações podem ser armazenados ou acedidos no seu dispositivo, para os fins acima indicados.

  • Anúncios e conteúdos personalizados, medição de anúncios e conteúdos, dados sobre o público-alvo e desenvolvimento de produtos

    Os anúncios e os conteúdos podem ser personalizados com base num perfil. Podem ser adicionados dados adicionais para uma maior personalização dos anúncios e dos conteúdos. A eficácia dos anúncios e dos conteúdos pode ser medida. Podem ser obtidas informações sobre o público que visualizou os anúncios e os conteúdos. Estes dados podem ser usados para desenvolver ou melhorar sistemas, softwares ou a experiência do utilizador.

Ao clicar em "Eu concordo”, permitirá o uso de cookies, identificadores do dispositivo e web beacons mencionados ou outras tecnologias semelhantes. As configurações do navegador do seu dispositivo podem ser alteradas.

Para certos fins, podem ser invocados interesses legítimos ao invés de consentimento. Pode ler mais informação sobre este assunto na nossa Política de Privacidade e Cookies.